Kremmling, CO

9:42 AM MDT on June 23, 2017 (GMT -0600)
Kremmling

Weather History for K20V - August, 2013

Change the Weather History Date:

Saturday, August 3, 2013

  Actual Average Record
Temperature  
Mean Temperature 67 °F -  
Max Temperature 84 °F - 88 °F (2016)
Min Temperature 50 °F - 39 °F (2006)
Degree Days  
Heating Degree Days 0    
Month to date heating degree days  
Cooling Degree Days 2    
Month to date cooling degree days  
Growing Degree Days 17 (Base 50)    
Moisture  
Dew Point 40 °F    
Average Humidity 45    
Maximum Humidity 76    
Minimum Humidity 14    
Precipitation  
Precipitation 0.00 in - 0.03 in (2007)
Sea Level Pressure  
Sea Level Pressure 30.35 in    
Wind  
Wind Speed 3 mph (SW)    
Max Wind Speed 16 mph    
Max Gust Speed 22 mph    
Visibility 10 miles    
Events Rain , Thunderstorm    
T = Trace of Precipitation, MM = Missing Value Source: NWS Daily Summary

Daily Weather History Graph

Daily Weather History Graph

Search for Another Location

Airport or City:

Trip Planner

Search our weather history database for the weather conditions in past years. The results will help you decide how hot, cold, wet, or windy it might be!

Date:

Astronomy

Aug. 03, 2013 Rise Set
Actual Time 6:05 AM MDT 8:16 PM MDT
Civil Twilight 5:35 AM MDT 8:46 PM MDT
Nautical Twilight 4:58 AM MDT 9:23 PM MDT
Astronomical Twilight 4:18 AM MDT 10:03 PM MDT
Moon 3:17 AM MDT (8/3) 6:01 PM MDT (8/3)
Length of Visible Light 15h 11m
Length of Day
14h 10m
Waning Crescent, 9% of the Moon is Illuminated
Aug 3
Waning Crescent
Aug 6
New
Aug 14
First Quarter
Aug 20
Full
Aug 28
Last Quarter

Hourly Weather History & Observations

Time (MDT) Temp. Dew Point Humidity Pressure Visibility Wind Dir Wind Speed Gust Speed Precip Events Conditions
12:16 AM 59.0 °F 37.4 °F 45% 30.30 in 10.0 mi Calm Calm - N/A   Clear
12:36 AM 59.0 °F 37.4 °F 45% 30.31 in 10.0 mi ESE 5.8 mph - N/A   Clear
12:56 AM 57.2 °F 37.4 °F 48% 30.31 in 10.0 mi East 4.6 mph - N/A   Clear
1:16 AM 55.4 °F 39.2 °F 54% 30.31 in 10.0 mi East 3.5 mph - N/A   Clear
1:36 AM 55.4 °F 39.2 °F 54% 30.31 in 10.0 mi Calm Calm - N/A   Clear
1:56 AM 53.6 °F 39.2 °F 58% 30.31 in 10.0 mi Calm Calm - N/A   Clear
2:16 AM 51.8 °F 41.0 °F 67% 30.31 in 10.0 mi Calm Calm - N/A   Clear
2:35 AM 53.6 °F 41.0 °F 62% 30.32 in 10.0 mi SE 3.5 mph - N/A   Clear
2:56 AM 50.0 °F 41.0 °F 71% 30.32 in 10.0 mi Calm Calm - N/A   Clear
3:16 AM 50.0 °F 41.0 °F 71% 30.32 in 10.0 mi Calm Calm - N/A   Clear
3:36 AM 50.0 °F 39.2 °F 66% 30.32 in 10.0 mi SSE 3.5 mph - N/A   Clear
3:56 AM 50.0 °F 41.0 °F 71% 30.32 in 10.0 mi Calm Calm - N/A   Clear
4:16 AM 50.0 °F 41.0 °F 71% 30.33 in 10.0 mi Calm Calm - N/A   Clear
4:36 AM 50.0 °F 41.0 °F 71% 30.33 in 10.0 mi Calm Calm - N/A   Clear
4:56 AM 50.0 °F 41.0 °F 71% 30.34 in 10.0 mi Calm Calm - N/A   Clear
5:16 AM 50.0 °F 41.0 °F 71% 30.35 in 10.0 mi Calm Calm - N/A   Clear
5:36 AM 50.0 °F 39.2 °F 66% 30.36 in 10.0 mi Calm Calm - N/A   Clear
5:56 AM 50.0 °F 42.8 °F 76% 30.36 in 10.0 mi Calm Calm - N/A   Clear
6:16 AM 50.0 °F 41.0 °F 71% 30.36 in 10.0 mi Calm Calm - N/A   Clear
6:36 AM 50.0 °F 41.0 °F 71% 30.37 in 10.0 mi ESE 4.6 mph - N/A   Clear
6:56 AM 50.0 °F 41.0 °F 71% 30.37 in 10.0 mi ESE 3.5 mph - N/A   Clear
7:16 AM 51.8 °F 37.4 °F 58% 30.39 in 10.0 mi Calm Calm - N/A   Clear
7:36 AM 51.8 °F 41.0 °F 67% 30.39 in 10.0 mi Calm Calm - N/A   Clear
7:56 AM 53.6 °F 41.0 °F 62% 30.39 in 10.0 mi Calm Calm - N/A   Clear
8:16 AM 53.6 °F 41.0 °F 62% 30.39 in 10.0 mi Calm Calm - N/A   Clear
8:36 AM 59.0 °F 41.0 °F 51% 30.40 in 10.0 mi Calm Calm - N/A   Clear
8:55 AM 59.0 °F 41.0 °F 51% 30.39 in 10.0 mi Calm Calm - N/A   Clear
9:16 AM 60.8 °F 42.8 °F 52% 30.39 in 10.0 mi SW 3.5 mph - N/A   Clear
9:36 AM 60.8 °F 41.0 °F 48% 30.39 in 10.0 mi Calm Calm - N/A   Clear
9:56 AM 62.6 °F 41.0 °F 45% 30.39 in 10.0 mi Calm Calm - N/A   Clear
10:16 AM 64.4 °F 41.0 °F 42% 30.38 in 10.0 mi Calm Calm - N/A   Clear
10:36 AM 69.8 °F 41.0 °F 35% 30.37 in 10.0 mi ENE 3.5 mph - N/A   Clear
10:56 AM 71.6 °F 41.0 °F 33% 30.37 in 10.0 mi ENE 4.6 mph - N/A   Clear
11:16 AM 73.4 °F 39.2 °F 29% 30.36 in 10.0 mi Calm Calm - N/A   Clear
11:36 AM 77.0 °F 39.2 °F 26% 30.35 in 10.0 mi Calm Calm - N/A   Clear
11:56 AM 77.0 °F 37.4 °F 24% 30.34 in 10.0 mi SE 4.6 mph - N/A   Clear
12:16 PM 78.8 °F 35.6 °F 21% 30.34 in 10.0 mi NNE 3.5 mph - N/A   Clear
12:36 PM 78.8 °F 32.0 °F 18% 30.32 in 10.0 mi ESE 4.6 mph - N/A   Clear
12:56 PM 80.6 °F 30.2 °F 16% 30.32 in 10.0 mi Calm Calm - N/A   Clear
1:16 PM 82.4 °F 28.4 °F 14% 30.31 in 10.0 mi SW 4.6 mph - N/A   Clear
1:36 PM 82.4 °F 30.2 °F 15% 30.30 in 10.0 mi NNW 4.6 mph - N/A   Clear
1:56 PM 82.4 °F 30.2 °F 15% 30.29 in 10.0 mi West 5.8 mph - N/A   Clear
2:16 PM 84.2 °F 30.2 °F 14% 30.29 in 10.0 mi WSW 8.1 mph - N/A   Clear
2:36 PM 80.6 °F 28.4 °F 15% 30.28 in 10.0 mi West 4.6 mph - N/A   Clear
2:56 PM 77.0 °F 32.0 °F 19% 30.29 in 10.0 mi NW 16.1 mph 20.7 mph N/A   Scattered Clouds
3:16 PM 73.4 °F 35.6 °F 25% 30.32 in 10.0 mi NW 13.8 mph 21.9 mph N/A Rain Light Rain
3:36 PM 73.4 °F 42.8 °F 33% 30.33 in 10.0 mi West 11.5 mph 16.1 mph N/A Rain , Thunderstorm Light Thunderstorms and Rain
3:56 PM 73.4 °F 37.4 °F 27% 30.35 in 10.0 mi NW 10.4 mph 17.3 mph N/A   Mostly Cloudy
4:15 PM 73.4 °F 42.8 °F 33% 30.36 in 10.0 mi North 9.2 mph - N/A   Mostly Cloudy
4:36 PM 71.6 °F 41.0 °F 33% 30.36 in 10.0 mi NNW 11.5 mph 16.1 mph N/A   Mostly Cloudy
4:56 PM 73.4 °F 41.0 °F 31% 30.35 in 10.0 mi NNW 11.5 mph 18.4 mph N/A   Scattered Clouds
5:15 PM 71.6 °F 39.2 °F 31% 30.34 in 10.0 mi North 5.8 mph - N/A   Clear
5:36 PM 73.4 °F 37.4 °F 27% 30.34 in 10.0 mi Calm Calm - N/A   Scattered Clouds
5:56 PM 71.6 °F 37.4 °F 29% 30.34 in 10.0 mi North 6.9 mph - N/A   Scattered Clouds
6:16 PM 69.8 °F 37.4 °F 31% 30.35 in 10.0 mi WNW 3.5 mph - N/A   Mostly Cloudy
6:35 PM 69.8 °F 39.2 °F 33% 30.34 in 10.0 mi WNW 3.5 mph - N/A   Mostly Cloudy
6:56 PM 69.8 °F 42.8 °F 38% 30.33 in 10.0 mi West 4.6 mph - N/A   Scattered Clouds
7:16 PM 71.6 °F 42.8 °F 35% 30.33 in 10.0 mi SW 3.5 mph - N/A   Scattered Clouds
7:36 PM 69.8 °F 39.2 °F 33% 30.32 in 10.0 mi SSW 4.6 mph - N/A   Clear
7:56 PM 69.8 °F 44.6 °F 40% 30.33 in 10.0 mi WSW 4.6 mph - N/A   Clear
8:16 PM 66.2 °F 41.0 °F 40% 30.35 in 10.0 mi West 3.5 mph - N/A   Clear
8:36 PM 62.6 °F 41.0 °F 45% 30.36 in 10.0 mi Calm Calm - N/A   Scattered Clouds
8:56 PM 64.4 °F 42.8 °F 45% 30.37 in 10.0 mi South 3.5 mph - N/A   Mostly Cloudy
9:16 PM 66.2 °F 42.8 °F 43% 30.37 in 10.0 mi SW 8.1 mph - N/A   Mostly Cloudy
9:36 PM 68.0 °F 42.8 °F 40% 30.37 in 10.0 mi South 8.1 mph - N/A   Overcast
9:56 PM 68.0 °F 44.6 °F 43% 30.35 in 10.0 mi South 12.7 mph 18.4 mph N/A   Mostly Cloudy
10:16 PM 64.4 °F 44.6 °F 49% 30.37 in 10.0 mi WSW 8.1 mph - N/A   Scattered Clouds
10:36 PM 64.4 °F 44.6 °F 49% 30.37 in 10.0 mi Calm Calm - N/A   Clear
10:56 PM 62.6 °F 44.6 °F 52% 30.38 in 10.0 mi SSE 5.8 mph - N/A   Clear
11:16 PM 62.6 °F 42.8 °F 48% 30.39 in 10.0 mi South 4.6 mph - N/A   Clear
11:35 PM 60.8 °F 44.6 °F 55% 30.39 in 10.0 mi South 4.6 mph - N/A   Clear
11:55 PM 60.8 °F 44.6 °F 55% 30.38 in 10.0 mi South 6.9 mph - N/A   Clear